Back to catalog

STARLINK-3678

AliveCommunicationsVLEO
NORAD 52121·PAYLOAD·🇺🇸 United States

Launched Mar 19, 2022 from Cape Canaveral Space Force Station

Loading…

Next Passes (next 24 hours)

TLE

FreshSource: CelesTrak SupGP

Epoch: Sep 14, 2026, 14:15 UTC

1 52121C 22029AK  26257.59423611  .00038878  00000+0  11130-2 0  2577
2 52121  53.1581 295.3661 0001460  77.0503 257.9126 15.35360010    18

Track STARLINK-3678 in real time with AllMySat

Download on the App Store